This is the latest recevied weather packets stored in our database for station/object 9W2JBV-1. If no packets are shown the sender has not sent any weather packets the latest 10 day(s).
| Time | Temp. | Humidity | Pressure | Rain* | Wind** | Luminosity | Snow |
|---|---|---|---|---|---|---|---|
| 1788155748 | 93° F | 59% | 764.7 mmHg | - | - | - | - |
| 1788154548 | 92° F | 59% | 764.9 mmHg | - | - | - | - |
| 1788153348 | 92° F | 59% | 765.2 mmHg | - | - | - | - |
| 1788152148 | 92° F | 60% | 765.3 mmHg | - | - | - | - |
| 1788150979 | 92° F | 59% | 765.6 mmHg | - | - | - | - |
| 1788150948 | 92° F | 59% | 765.6 mmHg | - | - | - | - |
| 1788149747 | 91° F | 60% | 765.7 mmHg | - | - | - | - |
| 1788148547 | 91° F | 60% | 766 mmHg | - | - | - | - |
| 1788147347 | 91° F | 60% | 766.3 mmHg | - | - | - | - |
| 1788146147 | 91° F | 59% | 766.2 mmHg | - | - | - | - |
| 1788144947 | 91° F | 61% | 766.2 mmHg | - | - | - | - |
| 1788143747 | 91° F | 62% | 766 mmHg | - | - | - | - |
| 1788142547 | 90° F | 62% | 765.7 mmHg | - | - | - | - |
| 1788141347 | 90° F | 63% | 765.4 mmHg | - | - | - | - |
| 1788140180 | 90° F | 63% | 764.9 mmHg | - | - | - | - |
| 1788140147 | 90° F | 63% | 764.9 mmHg | - | - | - | - |
| 1788138947 | 90° F | 63% | 764.9 mmHg | - | - | - | - |
| 1788137746 | 90° F | 64% | 765.1 mmHg | - | - | - | - |
| 1788136546 | 90° F | 64% | 765.1 mmHg | - | - | - | - |
| 1788135346 | 88° F | 65% | 765.3 mmHg | - | - | - | - |
| 1788134146 | 88° F | 65% | 765.5 mmHg | - | - | - | - |
| 1788132946 | 88° F | 67% | 765.6 mmHg | - | - | - | - |
| 1788131746 | 89° F | 64% | 765.4 mmHg | - | - | - | - |
| 1788130546 | 89° F | 67% | 765.6 mmHg | - | - | - | - |
| 1788129346 | 89° F | 67% | 765.6 mmHg | - | - | - | - |
* Rain since midnight (hover to see other rain measurements)
** Current wind speed in m/s (hover to see current wind gust speed)